Weather in Vila Real

Portugal     41°17′53″N   7°44′56″W
temp.,
°C
wind,
m/s
gust,
m/s
humid.,
%
clouds,
%
prec.,
mm/h
press.,
hPa
HPBL,
m
16 june, wed
wed1601:00+17ene2389100 7.6 1014154
04:00+16ene22925 0.0 1013123
07:00+16ese119275 1.4 101290
10:00+21ese116713 0.1 1012730
13:00+24sse225557 1.6 10101421
16:00+21w3373100 6.6 1010502
19:00+20wnw3381100 9.0 1010593
22:00+17wnw238898 0.6 1012358
17 june, thu
thu1701:00+16nw0189100 0.8 101189
04:00+15e0191100 0.0 100941
07:00+15w119060 0.1 1010139
10:00+18w2378100 1.4 1010618
13:00+20sw3464100 4.4 10091196
16:00+18wnw3476100 2.8 1010674
19:00+17w2484100 5.6 1010435
22:00+15nnw1191100 3.9 1012171
18 june, fri
fri1801:00+15nw118982 4.7 1012124
04:00+14nne11935 0.0 101234
07:00+14ene22925 0.0 1012123
10:00+17e237143 0.1 1013843
13:00+19se236740 2.4 10121047
16:00+20sw23625 4.3 10121199
19:00+19wnw346914 5.5 1012732
22:00+15w228136 1.8 101347
19 june, sat
sat1901:00+14se118173 2.1 101321
04:00+13nnw018891 0.8 101319
07:00+13nnw019189 1.3 101382
10:00+16wsw227773 0.9 1012439
13:00+19w336424 2.4 10131215
16:00+17w4571100 1.5 10131087
19:00+14w4782100 1.8 1013953
22:00+12wsw358977 0.7 1015533
20 june, sun
sun2001:00+10wsw239075 0.7 1015363
04:00+11sse2486100 0.4 1013434
07:00+11ssw1394100 2.2 1012258
10:00+12ssw249399 0.2 1012339
13:00+18wsw485723 0.7 10111662
16:00+18wsw6105385 0.3 10111829
19:00+15w5106629 0.4 10111335
22:00+12w388349 0.3 1013857